Home   Weather   Santa Cruz   Past weeks

Flag for Bolivia Past Weather in Santa Cruz, Bolivia — Yesterday and Last 2 Weeks

Now
55 °F

Fog.


Feels Like: 54 °F
Forecast: 52 / 81 °F
Wind: 6 mph from Northwest

Location: Viru-Viru

Current Time: Aug 31, 2016 at 4:07:48 AM

Latest Report: Aug 31, 2016 at 3:00 AM


Visibility: 3 mi

Pressure: 30.04 "Hg

Humidity: 94%

Dew Point: 54 °F

Location of Santa CruzLocation

Past Weather in Santa Cruz — Graph

°F

Santa Cruz Temperature Yesterday

Maximum temperature yesterday: 77 °F (at 2:00 PM)
Minimum temperature yesterday: 54 °F (at 4:00 AM)
Average temperature yesterday: 62 °F

High & Low Weather Summary for the Past Weeks

 TemperatureHumidityPressure
High97 °F (Aug 26, 2:00 PM)100% (Aug 16, 3:00 AM)30.42 "Hg (Aug 16, 3:00 AM)
Low50 °F (Aug 23, 4:00 AM)2% (Aug 22, 3:00 PM)29.68 "Hg (Aug 19, 6:00 PM)
Average73 °F57%29.95 "Hg
* Reported Aug 16 3:00 AM — Aug 31 3:00 AM, Santa Cruz, Weather by CustomWeather, © 2016

Note: Actual official high and low records may vary slightly from our data, if they occured in-between our weather recording intervals... More about our weather records

Advertising

Santa Cruz Weather History for the Previous 24 Hours

Scroll right to see more
 ConditionsComfort  
Time TempWeatherWind HumidityBarometerVisibility
3:00 AM
Wed, Aug 31
55 °FFog.6 mph94%30.04 "Hg3 mi
2:00 AM55 °FClear.6 mph100%30.04 "Hg4 mi
1:00 AM54 °FFog.5 mph100%30.07 "Hg3 mi
12:00 AM55 °FClear.5 mph100%30.07 "HgN/A
11:00 PM
Tue, Aug 30
55 °FClear.5 mph100%30.07 "HgN/A
10:00 PM57 °FClear.2 mph94%30.04 "HgN/A
9:00 PM57 °FClear.3 mph94%30.04 "HgN/A
8:00 PM61 °FClear.5 mph83%30.04 "HgN/A
7:00 PM66 °FClear.5 mph60%30.01 "HgN/A
6:00 PM72 °FClear.3 mph41%30.01 "HgN/A
5:00 PM75 °FClear.3 mph29%30.01 "HgN/A
4:00 PM77 °FClear.8 mph28%30.04 "HgN/A
3:00 PM75 °FClear.8 mph29%30.04 "HgN/A
2:00 PM77 °FClear.8 mph30%30.07 "HgN/A
1:00 PM73 °FPartly sunny.10 mph36%30.12 "HgN/A
12:00 PM70 °FPartly sunny.12 mph46%30.15 "HgN/A
11:00 AM66 °FPartly sunny.12 mph56%30.15 "HgN/A
10:00 AM63 °FScattered clouds.12 mph68%30.18 "HgN/A
9:00 AM57 °FPartly sunny.10 mph88%30.15 "HgN/A
8:00 AM55 °FPartly sunny.7 mph94%30.15 "HgN/A
7:00 AM54 °FBroken clouds.8 mph100%30.12 "HgN/A
6:00 AM54 °FMostly cloudy.7 mph100%30.12 "HgN/A
5:00 AM54 °FLight rain. Mostly cloudy.8 mph100%30.09 "Hg5 mi
4:00 AM54 °FLight rain. Mostly cloudy.9 mph100%30.09 "Hg5 mi
Weather by CustomWeather, © 2016

See weather overviewHow to use our weather pages